Overview Statistics Trail Chart Weather Telemetry Raw packets
 

This is the latest recevied weather packets stored in our database for station/object SM6LNJ-10. If no packets are shown the sender has not sent any weather packets the latest 10 day(s).

<< 1 2 3 4 >>
Time Temp. Humidity Pressure Rain* Wind** Luminosity Snow
1788428846 24.44° C 42% 1007.9 hPa - - - -
1788427945 24.44° C 42% 1008.1 hPa - - - -
1788427045 24.44° C 42% 1008.1 hPa - - - -
1788426144 24.44° C 42% 1008.2 hPa - - - -
1788425243 24.44° C 43% 1008.4 hPa - - - -
1788424342 23.89° C 44% 1008.2 hPa - - - -
1788423442 23.33° C 45% 1008.4 hPa - - - -
1788422541 23.89° C 44% 1008.5 hPa - - - -
1788421640 23.33° C 43% 1008.5 hPa - - - -
1788420739 23.33° C 43% 1008.6 hPa - - - -
1788419838 22.78° C 42% 1008.6 hPa - - - -
1788418938 23.33° C 42% 1008.6 hPa - - - -
1788418037 22.78° C 43% 1008.6 hPa - - - -
1788417136 23.33° C 42% 1008.7 hPa - - - -
1788416235 23.33° C 42% 1008.7 hPa - - - -
1788415334 23.33° C 42% 1008.6 hPa - - - -
1788414434 23.33° C 42% 1008.7 hPa - - - -
1788413533 23.33° C 42% 1008.8 hPa - - - -
1788412632 23.33° C 42% 1008.9 hPa - - - -
1788411731 22.78° C 43% 1009 hPa - - - -
1788410830 22.78° C 43% 1008.9 hPa - - - -
1788409930 22.22° C 44% 1009.1 hPa - - - -
1788409037 22.78° C 43% 1009.2 hPa - - - -
1788408128 22.78° C 43% 1009.2 hPa - - - -
1788407227 22.78° C 43% 1009.3 hPa - - - -

* Rain since midnight (hover to see other rain measurements)
** Current wind speed in m/s (hover to see current wind gust speed)